| time (UTC) | temp F | wind direction | speed MPH | gust MPH | rain 1hr in | rain 24hr in | rain mn in | humidity % | barometer mb |
| 20260506231542 | 61 | 76 | 0.0 | 2.0 | 0.00 | 0.00 | 0.00 | 76 | 1006.0 |
| 20260506230039 | 60 | 94 | 1.0 | 2.0 | 0.00 | 0.00 | 0.00 | 77 | 1006.1 |
| 20260506224536 | 61 | 123 | 0.0 | 1.0 | 0.00 | 0.00 | 0.00 | 77 | 1006.0 |
| 20260506223035 | 62 | 123 | 0.0 | 1.0 | 0.00 | 0.00 | 0.00 | 76 | 1006.0 |
| 20260506221532 | 62 | 123 | 0.0 | 1.0 | 0.00 | 0.00 | 0.00 | 74 | 1006.0 |
| 20260506220029 | 63 | 123 | 0.0 | 1.0 | 0.00 | 0.00 | 0.00 | 72 | 1006.0 |
| 20260506214528 | 64 | 138 | 0.0 | 1.0 | 0.00 | 0.00 | 0.00 | 70 | 1005.9 |
| 20260506213027 | 64 | 138 | 0.0 | 1.0 | 0.00 | 0.00 | 0.00 | 68 | 1005.9 |
| 20260506211526 | 65 | 138 | 0.0 | 1.0 | 0.00 | 0.00 | 0.00 | 67 | 1006.0 |
| 20260506210028 | 66 | 138 | 0.0 | 2.0 | 0.00 | 0.00 | 0.00 | 66 | 1005.9 |
| 20260506204526 | 66 | 140 | 1.0 | 3.0 | 0.00 | 0.00 | 0.00 | 63 | 1005.8 |
| 20260506203024 | 67 | 117 | 1.0 | 3.0 | 0.00 | 0.00 | 0.00 | 61 | 1005.7 |
| 20260506201524 | 68 | 133 | 2.0 | 3.0 | 0.00 | 0.00 | 0.00 | 59 | 1005.6 |
| 20260506200024 | 69 | 141 | 1.0 | 2.0 | 0.00 | 0.00 | 0.00 | 57 | 1005.7 |
| 20260506194523 | 69 | 141 | 1.0 | 3.0 | 0.00 | 0.00 | 0.00 | 55 | 1005.7 |
| 20260506193022 | 70 | 145 | 1.0 | 3.0 | 0.00 | 0.00 | 0.00 | 54 | 1005.7 |
| 20260506191522 | 70 | 94 | 0.0 | 3.0 | 0.00 | 0.00 | 0.00 | 54 | 1005.4 |
| 20260506190021 | 70 | 90 | 1.0 | 3.0 | 0.00 | 0.00 | 0.00 | 53 | 1005.4 |
| 20260506184521 | 71 | 88 | 1.0 | 3.0 | 0.00 | 0.00 | 0.00 | 53 | 1005.3 |
| 20260506183020 | 71 | 92 | 1.0 | 4.0 | 0.00 | 0.00 | 0.00 | 52 | 1005.0 |
| 20260506180018 | 72 | 74 | 0.0 | 3.0 | 0.00 | 0.00 | 0.00 | 51 | 1004.8 |
| 20260506174518 | 73 | 107 | 0.0 | 3.0 | 0.00 | 0.00 | 0.00 | 50 | 1004.8 |
| 20260506173017 | 74 | 80 | 0.0 | 2.0 | 0.00 | 0.00 | 0.00 | 48 | 1004.8 |
| 20260506171520 | 74 | 130 | 1.0 | 4.0 | 0.00 | 0.00 | 0.00 | 48 | 1004.8 |
| 20260506170020 | 75 | 126 | 1.0 | 2.0 | 0.00 | 0.00 | 0.00 | 47 | 1004.8 |
| 20260506164516 | 75 | 87 | 0.0 | 3.0 | 0.00 | 0.00 | 0.00 | 46 | 1004.8 |
| 20260506163030 | 76 | 111 | 1.0 | 4.0 | 0.00 | 0.00 | 0.00 | 44 | 1004.8 |
| 20260506161513 | 76 | 122 | 2.0 | 13.0 | 0.00 | 0.00 | 0.00 | 43 | 1004.8 |
| 20260506160018 | 76 | 132 | 4.0 | 12.0 | 0.00 | 0.00 | 0.00 | 44 | 1005.0 |
| 20260506154509 | 76 | 149 | 3.0 | 17.0 | 0.00 | 0.00 | 0.00 | 45 | 1005.1 |
| 20260506153007 | 76 | 126 | 3.0 | 9.0 | 0.00 | 0.00 | 0.00 | 44 | 1005.2 |
| 20260506151506 | 78 | 93 | 3.0 | 13.0 | 0.00 | 0.00 | 0.00 | 41 | 1005.1 |
| 20260506150006 | 80 | 146 | 5.0 | 14.0 | 0.00 | 0.00 | 0.00 | 40 | 1005.1 |
| 20260506144506 | 80 | 135 | 7.0 | 14.0 | 0.00 | 0.00 | 0.00 | 40 | 1005.1 |
| 20260506143004 | 78 | 114 | 5.0 | 18.0 | 0.00 | 0.00 | 0.00 | 41 | 1005.1 |
| 20260506141504 | 78 | 141 | 4.0 | 17.0 | 0.00 | 0.00 | 0.00 | 42 | 1005.2 |
| 20260506140003 | 79 | 128 | 8.0 | 17.0 | 0.00 | 0.00 | 0.00 | 41 | 1005.1 |
| 20260506134502 | 80 | 132 | 3.0 | 15.0 | 0.00 | 0.00 | 0.00 | 40 | 1005.0 |
| 20260506133100 | 79 | 146 | 6.0 | 19.0 | 0.00 | 0.00 | 0.00 | 40 | 1005.0 |
| 20260506131601 | 79 | 130 | 8.0 | 21.0 | 0.00 | 0.00 | 0.00 | 41 | 1005.1 |
| 20260506130100 | 79 | 130 | 3.0 | 14.0 | 0.00 | 0.00 | 0.00 | 40 | 1005.1 |
| 20260506124556 | 79 | 141 | 6.0 | 14.0 | 0.00 | 0.00 | 0.00 | 40 | 1005.1 |
| 20260506123157 | 79 | 123 | 7.0 | 16.0 | 0.00 | 0.00 | 0.00 | 40 | 1005.1 |
| 20260506121555 | 79 | 156 | 10.0 | 19.0 | 0.00 | 0.00 | 0.00 | 39 | 1005.1 |
| 20260506120059 | 79 | 134 | 3.0 | 20.0 | 0.00 | 0.00 | 0.00 | 38 | 1005.1 |
| 20260506114604 | 79 | 142 | 9.0 | 17.0 | 0.00 | 0.00 | 0.00 | 37 | 1005.1 |
| 20260506113053 | 79 | 156 | 8.0 | 17.0 | 0.00 | 0.00 | 0.00 | 39 | 1005.1 |
| 20260506111550 | 78 | 142 | 4.0 | 15.0 | 0.00 | 0.00 | 0.00 | 41 | 1005.0 |
| 20260506110147 | 78 | 107 | 3.0 | 14.0 | 0.00 | 0.00 | 0.00 | 40 | 1005.2 |
| 20260506104547 | 78 | 119 | 8.0 | 17.0 | 0.00 | 0.00 | 0.00 | 40 | 1005.3 |
| 20260506103047 | 77 | 139 | 9.0 | 16.0 | 0.00 | 0.00 | 0.00 | 41 | 1005.4 |
| 20260506101545 | 77 | 117 | 2.0 | 19.0 | 0.00 | 0.00 | 0.00 | 41 | 1005.2 |
| 20260506100045 | 76 | 140 | 9.0 | 18.0 | 0.00 | 0.00 | 0.00 | 40 | 1005.4 |
| 20260506094607 | 75 | 123 | 6.0 | 17.0 | 0.00 | 0.00 | 0.00 | 41 | 1005.4 |
| 20260506093037 | 75 | 153 | 6.0 | 23.0 | 0.00 | 0.00 | 0.00 | 41 | 1005.5 |
| 20260506091534 | 74 | 132 | 7.0 | 17.0 | 0.00 | 0.00 | 0.00 | 43 | 1005.4 |
| 20260506090031 | 74 | 135 | 10.0 | 16.0 | 0.00 | 0.00 | 0.00 | 42 | 1005.3 |
| 20260506084529 | 73 | 139 | 11.0 | 16.0 | 0.00 | 0.00 | 0.00 | 43 | 1005.4 |
| 20260506083028 | 72 | 140 | 10.0 | 15.0 | 0.00 | 0.00 | 0.00 | 44 | 1005.3 |
| 20260506081526 | 72 | 157 | 9.0 | 20.0 | 0.00 | 0.00 | 0.00 | 43 | 1005.4 |
| 20260506073025 | 71 | 139 | 7.0 | 15.0 | 0.00 | 0.00 | 0.00 | 45 | 1005.2 |
| 20260506071529 | 71 | 150 | 9.0 | 21.0 | 0.00 | 0.00 | 0.00 | 45 | 1005.3 |
| 20260506061517 | 70 | 94 | 1.0 | 8.0 | 0.00 | 0.00 | 0.00 | 48 | 1005.1 |
| 20260506043048 | 57 | 144 | 0.0 | 1.0 | 0.00 | 0.00 | 0.00 | 63 | 1005.7 |
| 20260506041647 | 55 | 144 | 0.0 | 1.0 | 0.00 | 0.00 | 0.00 | 67 | 1005.8 |
| 20260506040058 | 54 | 139 | 0.0 | 2.0 | 0.00 | 0.00 | 0.00 | 68 | 1005.6 |
| 20260506034549 | 53 | 204 | 0.0 | 2.0 | 0.00 | 0.00 | 0.00 | 70 | 1005.7 |
| 20260506033044 | 53 | 142 | 0.0 | 1.0 | 0.00 | 0.00 | 0.00 | 70 | 1005.7 |
| 20260506031555 | 53 | 142 | 0.0 | 1.0 | 0.00 | 0.00 | 0.00 | 70 | 1005.8 |
| 20260506030043 | 53 | 142 | 0.0 | 1.0 | 0.00 | 0.00 | 0.00 | 70 | 1005.8 |
| 20260506024542 | 53 | 139 | 0.0 | 2.0 | 0.00 | 0.00 | 0.00 | 71 | 1005.9 |
| 20260506023041 | 53 | 132 | 0.0 | 2.0 | 0.00 | 0.00 | 0.00 | 72 | 1005.9 |
| 20260506021540 | 52 | 133 | 0.0 | 1.0 | 0.00 | 0.00 | 0.00 | 75 | 1005.9 |
| 20260506020040 | 52 | 130 | 0.0 | 1.0 | 0.00 | 0.00 | 0.00 | 77 | 1006.0 |
| 20260506014538 | 52 | 130 | 0.0 | 1.0 | 0.00 | 0.00 | 0.00 | 78 | 1005.9 |
| 20260506013037 | 52 | 130 | 0.0 | 1.0 | 0.00 | 0.00 | 0.00 | 78 | 1005.9 |
| 20260506011538 | 52 | 130 | 0.0 | 1.0 | 0.00 | 0.00 | 0.00 | 78 | 1005.9 |
| 20260506010041 | 53 | 130 | 0.0 | 1.0 | 0.00 | 0.00 | 0.00 | 77 | 1006.1 |
| 20260506004531 | 53 | 130 | 0.0 | 1.0 | 0.00 | 0.00 | 0.00 | 76 | 1006.0 |
| 20260506003029 | 54 | 130 | 0.0 | 1.0 | 0.00 | 0.00 | 0.00 | 74 | 1006.0 |
| 20260506001527 | 55 | 130 | 0.0 | 1.0 | 0.00 | 0.00 | 0.00 | 73 | 1005.9 |
| 20260506000025 | 55 | 130 | 0.0 | 1.0 | 0.00 | 0.00 | 0.00 | 72 | 1006.0 |
| 20260505234523 | 55 | 130 | 0.0 | 0.0 | 0.00 | 0.00 | 0.00 | 69 | 1005.9 |
| 20260505233021 | 55 | 130 | 0.0 | 0.0 | 0.00 | 0.00 | 0.00 | 68 | 1006.0 |